Powrót do katalogu

AYAME 1

ECS 1

AktywnyŁącznośćHEO
NORAD 11261·PAYLOAD·🇯🇵 Japan

Wystrzelony Feb 6, 1979 z Tanegashima Space Center

Loading…

Następne Przeloty (najbliższe 24 godziny)

TLE

ŚwieżeSource: Space-Track

Epoka: Sep 14, 2026, 06:19 UTC

1 11261U 79009A   26257.26355091 -.00000100  00000-0  00000-0 0  9991
2 11261   9.4721 298.9946 3677525 151.6505 256.9933  1.68584184177660

Śledź AYAME 1 w czasie rzeczywistym z AllMySat

Download on the App Store